Location: Hains Lake
(37.8540°N, 99.8578°W)
Time: 07:54:14
(UTC+00:00)

A-11 Canister half - All Passes

Search period start: 20 April 2021 00:00
Search period end: 30 April 2021 00:00
Orbit: 1525 x 1683 km, 47.3° (Epoch: 19 April)

Date Brightness Start Highest point End Pass type
(mag) Time Alt. Az. Time Alt. Az. Time Alt. Az.
20 Apr - 01:46:05 10° WNW 01:55:59 53° N 02:05:49 10° E visible
20 Apr - 03:51:45 10° WNW 04:01:59 87° SW 04:11:58 10° SE visible
20 Apr - 05:58:00 10° WNW 06:06:12 29° SW 06:14:14 10° S visible
20 Apr - 19:10:35 10° S 19:17:45 23° SE 19:25:03 10° ENE daylight
20 Apr - 21:11:47 10° SW 21:21:41 76° SE 21:31:50 10° ENE daylight
20 Apr - 23:17:32 10° W 23:27:25 56° NNW 23:37:25 10° ENE daylight
21 Apr - 01:24:20 10° WNW 01:34:13 52° N 01:44:03 10° E daylight
21 Apr - 03:30:03 10° WNW 03:40:17 90° SW 03:50:18 10° SE visible
21 Apr - 05:36:10 10° WNW 05:44:35 31° SW 05:52:50 10° S visible
21 Apr - 18:49:18 10° S 18:56:10 22° SE 19:03:08 10° E daylight
21 Apr - 20:50:10 10° SW 21:00:00 73° SE 21:10:07 10° ENE daylight
21 Apr - 22:55:47 10° W 23:05:40 57° NNW 23:15:41 10° ENE daylight
22 Apr - 01:02:35 10° WNW 01:12:27 52° N 01:22:17 10° E daylight
22 Apr - 03:08:20 10° WNW 03:18:35 88° NNE 03:28:38 10° ESE visible
22 Apr - 05:14:21 10° WNW 05:22:58 33° SW 05:31:26 10° S visible
22 Apr - 18:28:04 10° SSE 18:34:34 20° SE 18:41:10 10° E daylight
22 Apr - 20:28:33 10° SW 20:38:20 70° SE 20:48:24 10° ENE daylight
22 Apr - 22:34:01 10° W 22:43:54 59° NNW 22:53:57 10° ENE daylight
23 Apr - 00:40:50 10° WNW 00:50:41 51° N 01:00:31 10° E daylight
23 Apr - 02:46:38 10° WNW 02:56:53 85° NNE 03:06:57 10° ESE visible
23 Apr - 04:52:33 10° WNW 05:01:21 35° SW 05:10:00 10° SSE visible
23 Apr - 18:06:52 10° SSE 18:12:59 19° ESE 18:19:11 10° E daylight
23 Apr - 20:06:57 10° SW 20:16:40 67° SE 20:26:41 10° ENE daylight
23 Apr - 22:12:16 10° W 22:22:09 60° NNW 22:32:13 10° ENE daylight
24 Apr - 00:19:05 10° WNW 00:28:55 51° N 00:38:44 10° E daylight
24 Apr - 02:24:56 10° WNW 02:35:11 82° NNE 02:45:16 10° ESE visible
24 Apr - 04:30:46 10° WNW 04:39:43 37° SW 04:48:32 10° SSE visible
24 Apr - 17:45:44 10° SSE 17:51:24 17° ESE 17:57:09 10° E daylight
24 Apr - 19:45:22 10° SW 19:55:01 64° SE 20:04:58 10° ENE daylight
24 Apr - 21:50:32 10° W 22:00:24 61° NNW 22:10:29 10° ENE daylight
24 Apr - 23:57:20 10° WNW 00:07:08 51° N 00:16:58 10° E daylight
25 Apr - 02:03:13 10° WNW 02:13:28 80° NNE 02:23:34 10° ESE visible
25 Apr - 04:08:59 10° WNW 04:18:06 40° SW 04:27:04 10° SSE visible
25 Apr - 17:24:39 10° SSE 17:29:49 16° ESE 17:35:03 10° E daylight
25 Apr - 19:23:47 10° SW 19:33:21 61° SE 19:43:14 10° ENE daylight
25 Apr - 21:28:48 10° W 21:38:40 63° NNW 21:48:45 10° ENE daylight
25 Apr - 23:35:36 10° WNW 23:45:22 50° N 23:55:11 10° E daylight
26 Apr - 01:41:31 10° WNW 01:51:45 78° NNE 02:01:52 10° ESE visible
26 Apr - 03:47:13 10° WNW 03:56:28 42° SW 04:05:35 10° SSE visible
26 Apr - 17:03:39 10° SSE 17:08:15 14° ESE 17:12:53 10° E daylight
26 Apr - 19:02:13 10° SSW 19:11:42 59° SE 19:21:29 10° ENE daylight
26 Apr - 21:07:04 10° WSW 21:16:56 64° NNW 21:27:02 10° ENE daylight
26 Apr - 23:13:51 10° WNW 23:23:36 50° N 23:33:25 10° ENE daylight
27 Apr - 01:19:49 10° WNW 01:30:02 75° NNE 01:40:09 10° ESE daylight
27 Apr - 03:25:27 10° WNW 03:34:50 44° SW 03:44:04 10° SSE visible
27 Apr - 16:42:46 10° SE 16:46:40 13° ESE 16:50:37 10° E daylight
27 Apr - 18:40:40 10° SSW 18:50:03 56° SE 18:59:46 10° ENE daylight
27 Apr - 20:45:21 10° WSW 20:55:12 66° NNW 21:05:19 10° ENE daylight
27 Apr - 22:52:06 10° WNW 23:01:49 50° N 23:11:38 10° ENE daylight
28 Apr - 00:58:06 10° WNW 01:08:18 73° NNE 01:18:25 10° ESE daylight
28 Apr - 03:03:41 10° WNW 03:13:12 47° SW 03:22:34 10° SSE visible
28 Apr - 16:22:06 10° SE 16:25:06 12° ESE 16:28:07 10° ESE daylight
28 Apr - 18:19:07 10° SSW 18:28:25 53° SE 18:38:02 10° ENE daylight
28 Apr - 20:23:38 10° WSW 20:33:28 67° NNW 20:43:35 10° ENE daylight
28 Apr - 22:30:21 10° WNW 22:40:03 50° N 22:49:52 10° ENE daylight
29 Apr - 00:36:25 10° WNW 00:46:34 71° NNE 00:56:42 10° ESE daylight
29 Apr - 02:41:57 10° WNW 02:51:33 49° SW 03:01:02 10° SSE visible
29 Apr - 04:53:34 10° WSW 04:54:52 10° WSW 04:56:09 10° SW visible
29 Apr - 16:01:59 10° SE 16:03:32 10° ESE 16:05:06 10° ESE daylight
29 Apr - 17:57:35 10° SSW 18:06:47 50° SE 18:16:17 10° ENE daylight
29 Apr - 20:01:55 10° WSW 20:11:44 69° NNW 20:21:52 10° ENE daylight
29 Apr - 22:08:36 10° WNW 22:18:16 50° N 22:28:05 10° ENE daylight
